This is the latest recevied weather packets stored in our database for station/object AD8BV. If no packets are shown the sender has not sent any weather packets the latest 10 day(s).
| Time | Temp. | Humidity | Pressure | Rain* | Wind** | Luminosity | Snow |
|---|---|---|---|---|---|---|---|
| 1777673461 | 7.22° C | 67% | 1016.8 hPa | 0 mm | - | 64 W/m² | - |
| 1777673159 | 7.22° C | 70% | 1016.8 hPa | 0 mm | - | 65 W/m² | - |
| 1777672856 | 7.22° C | 69% | 1016.8 hPa | 0 mm | - | 51 W/m² | - |
| 1777672552 | 7.22° C | 67% | 1016.8 hPa | 0 mm | - | 53 W/m² | - |
| 1777672248 | 7.22° C | 69% | 1016.5 hPa | 0 mm | - | 65 W/m² | - |
| 1777671943 | 7.22° C | 67% | 1016.7 hPa | 0 mm | - | 62 W/m² | - |
| 1777671639 | 7.22° C | 66% | 1016.6 hPa | 0 mm | - | 68 W/m² | - |
| 1777671336 | 7.78° C | 68% | 1016.7 hPa | 0 mm | - | 97 W/m² | - |
| 1777671032 | 7.78° C | 66% | 1016.7 hPa | 0 mm | - | 57 W/m² | - |
| 1777670728 | 7.78° C | 69% | 1016.6 hPa | 0 mm | - | 44 W/m² | - |
| 1777670426 | 7.78° C | 67% | 1016.7 hPa | 0 mm | - | 56 W/m² | - |
| 1777670122 | 7.78° C | 64% | 1016.3 hPa | 0 mm | - | 65 W/m² | - |
| 1777669821 | 7.78° C | 66% | 1016.4 hPa | 0 mm | - | 67 W/m² | - |
| 1777669516 | 7.78° C | 66% | 1016.3 hPa | 0 mm | - | 69 W/m² | - |
| 1777669213 | 7.78° C | 66% | 1016.4 hPa | 0 mm | - | 96 W/m² | - |
| 1777668910 | 7.78° C | 67% | 1016.4 hPa | 0 mm | - | 76 W/m² | - |
| 1777668608 | 7.78° C | 66% | 1016.1 hPa | 0 mm | - | 54 W/m² | - |
| 1777668303 | 7.78° C | 63% | 1016.3 hPa | 0 mm | - | 73 W/m² | - |
| 1777667999 | 8.33° C | 65% | 1016.3 hPa | 0 mm | - | 108 W/m² | - |
| 1777667696 | 8.89° C | 61% | 1016.5 hPa | 0 mm | - | 159 W/m² | - |
| 1777667394 | 8.89° C | 61% | 1016.3 hPa | 0 mm | - | 211 W/m² | - |
| 1777667090 | 8.89° C | 62% | 1016.3 hPa | 0 mm | - | 381 W/m² | - |
| 1777666787 | 8.89° C | 59% | 1016.3 hPa | 0 mm | - | 343 W/m² | - |
| 1777666484 | 8.89° C | 60% | 1016.4 hPa | 0 mm | - | 367 W/m² | - |
| 1777666181 | 8.33° C | 64% | 1016.5 hPa | 0 mm | - | 265 W/m² | - |
* Rain latest hour (hover to see other rain measurements)
** Current wind speed in m/s (hover to see current wind gust speed)